Weather in Novy Bydzov

Czech Republic     50°14′28″N   15°29′32″E
В апреле 2022 года жителям России запретили посещать сайт meteo.paraplan.net по решению Генеральной прокуратуры. Аудитория сайта уменьшилась в 10 раз. Владельцы сайта не видят смысла в поддержке погодного сервера в таких условиях. Сайт будет закрыт в октябре.
temp.,
°C
wind,
m/s
gust,
m/s
humid.,
%
clouds,
%
prec.,
mm/h
press.,
hPa
HPBL,
m
30 september, fri
fri3023:00+9ne226892 0.0 100736
02:00+9ene2268100 0.0 100845
05:00+9nne1269100 0.0 100917
08:00+9nw1269100 0.0 101058
11:00+13nw125588 0.0 1011650
14:00+16se014843 0.0 10121377
17:00+15sse215112 0.0 10121330
20:00+10sse2272100 0.0 101427
1 october, sat
sat123:00+9se2378100 0.0 101449
02:00+8ese22861 0.0 101514
05:00+7se22895 0.0 101517
08:00+7ese1288100 0.0 101549
11:00+12s3370100 0.0 1014460
14:00+15sw5862100 0.0 10121270
17:00+12sw61174100 0.4 1011940
20:00+11wsw71384100 1.7 1012899
2 october, sun
sun223:00+11wsw71387100 0.1 1013906
02:00+11w6138894 0.4 1014698
05:00+11w51288100 0.3 1015596
08:00+10w4128927 0.6 1017512
11:00+14w8116953 0.2 10191215
14:00+15w8116697 0.9 10181431
17:00+14w7117422 1.2 10191144
20:00+10wnw388742 1.4 1020179
3 october, mon
mon323:00+9w389244 0.1 1021154
02:00+8w3794100 0.1 1021141
05:00+8w3696100 0.0 1021131
08:00+8wnw379441 0.0 1021165
11:00+13wnw467181 0.0 1021989
14:00+15wnw5758100 0.0 10201487
17:00+15nw365925 0.0 1020861
20:00+10nnw22770 0.0 102115
4 october, tue
tue423:00+9wnw34845 0.0 102156
02:00+8w348846 0.0 102164
05:00+7w3690100 0.0 1021116
08:00+8w378878 0.0 1021165
11:00+13wnw466775 0.0 1021658
14:00+16wnw4556100 0.0 10201040
17:00+15w236186 0.0 1019141
20:00+11ssw017096 0.0 102010